COSMOS 2533

Last updated on Wed Oct 29 2025 00:02:50 GMT+0000 (Coordinated Universal Time)

1 43867U 18107A 25301.62866344 -.00000027 00000+0 00000+0 0 9993 2 43867 0.0331 88.4582 0001049 190.1461 54.9582 1.00267042 25112
UTC large
Height (km)
Speed (km/s)
/
Latitude / Longitude
Inclination (degrees)
Orbital Period (minutes)
Azimuth
Elevation
Range (km)
Doppler Factor

Next 0 passes for location: London (51.5072 / 0.1276)

Sorry there are no passes over London.